date,time,SUV Intensity [MED/Hr],UV Index,Daily total [MED],Since Last [MED]
05/07/2023,23:58:36,0.000,0.0,8.038,8.038
05/07/2023,23:59:36,-0.001,0.0,8.038,0.0
06/07/2023,00:00:36,0.000,0.0,0.0,-8.038
06/07/2023,00:01:36,-0.000,0.0,0.0,0.0
06/07/2023,00:02:37,0.000,0.0,0.0,0.0
06/07/2023,00:03:36,0.001,0.0,0.0,0.0
06/07/2023,00:04:36,0.000,0.0,0.0,0.0
06/07/2023,00:05:36,0.001,0.0,0.0,0.0
06/07/2023,00:06:37,0.000,0.0,0.0,0.0
06/07/2023,00:07:36,0.001,0.0,0.0,0.0
06/07/2023,00:08:36,0.000,0.0,0.0,0.0
06/07/2023,00:09:36,-0.001,0.0,0.0,0.0
06/07/2023,00:10:36,-0.000,0.0,0.0,0.0
06/07/2023,00:11:36,-0.001,0.0,0.0,0.0
06/07/2023,00:12:37,0.001,0.0,0.0,0.0
06/07/2023,00:13:36,0.001,0.0,0.0,0.0
06/07/2023,00:14:36,0.000,0.0,0.0,0.0
06/07/2023,00:15:37,-0.001,0.0,0.0,0.0
06/07/2023,00:16:36,-0.001,0.0,0.0,0.0
06/07/2023,00:17:36,0.001,0.0,0.0,0.0
06/07/2023,00:18:36,0.000,0.0,0.0,0.0
06/07/2023,00:19:36,0.000,0.0,0.0,0.0
06/07/2023,00:20:59,0.000,0.0,0.0,0.0
06/07/2023,00:22:37,-0.000,0.0,0.0,0.0
06/07/2023,00:23:36,0.000,0.0,0.0,0.0
06/07/2023,00:24:36,0.000,0.0,0.0,0.0
06/07/2023,00:25:36,-0.001,0.0,0.0,0.0
06/07/2023,00:26:36,0.000,0.0,0.0,0.0
06/07/2023,00:27:37,0.000,0.0,0.0,0.0
06/07/2023,00:28:36,0.001,0.0,0.0,0.0
06/07/2023,00:29:38,0.001,0.0,0.0,0.0
06/07/2023,00:30:37,0.000,0.0,0.0,0.0
06/07/2023,00:31:36,-0.000,0.0,0.0,0.0
06/07/2023,00:32:36,0.000,0.0,0.0,0.0
06/07/2023,00:33:36,0.000,0.0,0.0,0.0
06/07/2023,00:34:36,-0.001,0.0,0.0,0.0
06/07/2023,00:35:36,0.000,0.0,0.0,0.0
06/07/2023,00:36:36,0.000,0.0,0.0,0.0
06/07/2023,00:37:37,0.001,0.0,0.0,0.0
06/07/2023,00:38:37,0.000,0.0,0.0,0.0
06/07/2023,00:39:36,0.001,0.0,0.0,0.0
06/07/2023,00:40:37,-0.000,0.0,0.0,0.0
06/07/2023,00:41:36,0.000,0.0,0.0,0.0
06/07/2023,00:42:36,-0.000,0.0,0.0,0.0
06/07/2023,00:43:36,-0.000,0.0,0.0,0.0
06/07/2023,00:44:37,0.000,0.0,0.0,0.0
06/07/2023,00:45:37,-0.000,0.0,0.0,0.0
06/07/2023,00:46:36,-0.001,0.0,0.0,0.0
06/07/2023,00:47:37,0.000,0.0,0.0,0.0
06/07/2023,00:48:37,0.000,0.0,0.0,0.0
06/07/2023,00:49:36,0.001,0.0,0.0,0.0
06/07/2023,00:50:37,0.000,0.0,0.0,0.0
06/07/2023,00:51:36,0.001,0.0,0.0,0.0
06/07/2023,00:53:06,0.000,0.0,0.0,0.0
06/07/2023,00:54:37,0.001,0.0,0.0,0.0
06/07/2023,00:55:36,0.001,0.0,0.0,0.0
06/07/2023,00:56:36,0.001,0.0,0.0,0.0
06/07/2023,00:57:36,0.000,0.0,0.0,0.0
06/07/2023,00:58:36,0.000,0.0,0.0,0.0
06/07/2023,00:59:36,0.000,0.0,0.0,0.0
06/07/2023,01:00:36,0.000,0.0,0.0,0.0
06/07/2023,01:01:36,0.000,0.0,0.0,0.0
06/07/2023,01:02:37,0.000,0.0,0.0,0.0
06/07/2023,01:03:37,-0.001,0.0,0.0,0.0
06/07/2023,01:04:36,-0.000,0.0,0.0,0.0
06/07/2023,01:05:37,0.000,0.0,0.0,0.0
06/07/2023,01:06:36,0.001,0.0,0.0,0.0
06/07/2023,01:07:36,0.001,0.0,0.0,0.0
06/07/2023,01:08:37,0.000,0.0,0.0,0.0
06/07/2023,01:09:37,0.001,0.0,0.0,0.0
06/07/2023,01:10:36,-0.000,0.0,0.0,0.0
06/07/2023,01:11:37,0.001,0.0,0.0,0.0
06/07/2023,01:12:36,0.000,0.0,0.0,0.0
06/07/2023,01:13:36,0.000,0.0,0.0,0.0
06/07/2023,01:14:36,0.001,0.0,0.0,0.0
06/07/2023,01:15:37,0.000,0.0,0.0,0.0
06/07/2023,01:16:36,0.000,0.0,0.0,0.0
06/07/2023,01:17:37,0.000,0.0,0.0,0.0
06/07/2023,01:18:36,0.001,0.0,0.0,0.0
06/07/2023,01:19:36,0.000,0.0,0.0,0.0
06/07/2023,01:20:36,-0.000,0.0,0.0,0.0
06/07/2023,01:21:36,0.001,0.0,0.0,0.0
06/07/2023,01:22:37,0.001,0.0,0.0,0.0
06/07/2023,01:23:36,0.000,0.0,0.0,0.0
06/07/2023,01:24:36,0.000,0.0,0.0,0.0
06/07/2023,01:25:36,0.001,0.0,0.0,0.0
06/07/2023,01:26:36,0.001,0.0,0.0,0.0
06/07/2023,01:27:37,0.001,0.0,0.0,0.0
06/07/2023,01:28:36,0.001,0.0,0.0,0.0
06/07/2023,01:29:37,0.001,0.0,0.0,0.0
06/07/2023,01:30:37,0.001,0.0,0.0,0.0
06/07/2023,01:31:36,0.000,0.0,0.0,0.0
06/07/2023,01:32:36,0.001,0.0,0.0,0.0
06/07/2023,01:33:37,0.000,0.0,0.0,0.0
06/07/2023,01:34:37,0.001,0.0,0.0,0.0
06/07/2023,01:35:35,-0.001,0.0,0.0,0.0
06/07/2023,01:36:36,0.000,0.0,0.0,0.0
06/07/2023,01:37:36,0.000,0.0,0.0,0.0
06/07/2023,01:38:37,0.001,0.0,0.0,0.0
06/07/2023,01:39:36,0.001,0.0,0.0,0.0
06/07/2023,01:40:36,0.001,0.0,0.0,0.0
06/07/2023,01:41:37,-0.000,0.0,0.0,0.0
06/07/2023,01:42:36,0.001,0.0,0.0,0.0
06/07/2023,01:43:36,0.000,0.0,0.0,0.0
06/07/2023,01:44:36,0.000,0.0,0.0,0.0
06/07/2023,01:45:36,0.000,0.0,0.0,0.0
06/07/2023,01:46:37,-0.001,0.0,0.0,0.0
06/07/2023,01:47:36,0.001,0.0,0.0,0.0
06/07/2023,01:48:36,0.000,0.0,0.0,0.0
06/07/2023,01:49:36,0.000,0.0,0.0,0.0
06/07/2023,01:50:37,0.000,0.0,0.0,0.0
06/07/2023,01:51:37,0.000,0.0,0.0,0.0
06/07/2023,01:52:36,0.000,0.0,0.0,0.0
06/07/2023,01:53:36,0.001,0.0,0.0,0.0
06/07/2023,01:54:36,-0.000,0.0,0.0,0.0
06/07/2023,01:55:37,-0.001,0.0,0.0,0.0
06/07/2023,01:56:36,0.000,0.0,0.0,0.0
06/07/2023,01:57:37,0.000,0.0,0.0,0.0
06/07/2023,01:58:37,0.000,0.0,0.0,0.0
06/07/2023,01:59:36,-0.001,0.0,0.0,0.0
06/07/2023,02:00:37,0.000,0.0,0.0,0.0
06/07/2023,02:01:36,0.001,0.0,0.0,0.0
06/07/2023,02:02:37,0.001,0.0,0.0,0.0
06/07/2023,02:03:36,0.001,0.0,0.0,0.0
06/07/2023,02:04:36,0.001,0.0,0.0,0.0
06/07/2023,02:05:36,0.001,0.0,0.0,0.0
06/07/2023,02:06:37,-0.000,0.0,0.0,0.0
06/07/2023,02:07:37,0.000,0.0,0.0,0.0
06/07/2023,02:08:37,0.001,0.0,0.0,0.0
06/07/2023,02:09:36,0.000,0.0,0.0,0.0
06/07/2023,02:10:37,0.000,0.0,0.0,0.0
06/07/2023,02:11:37,0.001,0.0,0.0,0.0
06/07/2023,02:12:36,0.000,0.0,0.0,0.0
06/07/2023,02:13:37,0.000,0.0,0.0,0.0
06/07/2023,02:14:36,0.000,0.0,0.0,0.0
06/07/2023,02:15:37,0.001,0.0,0.0,0.0
06/07/2023,02:16:36,-0.000,0.0,0.0,0.0
06/07/2023,02:17:37,0.001,0.0,0.0,0.0
06/07/2023,02:18:36,0.001,0.0,0.0,0.0
06/07/2023,02:19:37,0.000,0.0,0.0,0.0
06/07/2023,02:20:36,0.001,0.0,0.0,0.0
06/07/2023,02:21:37,-0.000,0.0,0.0,0.0
06/07/2023,02:22:36,0.001,0.0,0.0,0.0
06/07/2023,02:23:37,0.001,0.0,0.0,0.0
06/07/2023,02:24:36,-0.001,0.0,0.0,0.0
06/07/2023,02:25:37,0.001,0.0,0.0,0.0
06/07/2023,02:26:36,0.000,0.0,0.0,0.0
06/07/2023,02:27:37,0.001,0.0,0.0,0.0
06/07/2023,02:28:36,0.000,0.0,0.0,0.0
06/07/2023,02:29:37,0.001,0.0,0.0,0.0
06/07/2023,02:30:36,-0.000,0.0,0.0,0.0
06/07/2023,02:31:37,0.001,0.0,0.0,0.0
06/07/2023,02:32:36,0.001,0.0,0.0,0.0
06/07/2023,02:33:37,0.001,0.0,0.0,0.0
06/07/2023,02:34:36,-0.000,0.0,0.0,0.0
06/07/2023,02:35:37,0.001,0.0,0.0,0.0
06/07/2023,02:36:36,0.001,0.0,0.0,0.0
06/07/2023,02:37:37,-0.000,0.0,0.0,0.0
06/07/2023,02:38:37,0.000,0.0,0.0,0.0
06/07/2023,02:39:36,0.001,0.0,0.0,0.0
06/07/2023,02:40:37,0.000,0.0,0.0,0.0
06/07/2023,02:41:36,0.001,0.0,0.0,0.0
06/07/2023,02:42:37,0.000,0.0,0.0,0.0
06/07/2023,02:43:36,0.001,0.0,0.0,0.0
06/07/2023,02:44:37,0.000,0.0,0.0,0.0
06/07/2023,02:45:37,0.001,0.0,0.0,0.0
06/07/2023,02:46:36,0.000,0.0,0.0,0.0
06/07/2023,02:47:37,0.001,0.0,0.0,0.0
06/07/2023,02:48:36,0.000,0.0,0.0,0.0
06/07/2023,02:49:37,0.000,0.0,0.0,0.0
06/07/2023,02:50:37,0.001,0.0,0.0,0.0
06/07/2023,02:51:37,0.001,0.0,0.0,0.0
06/07/2023,02:52:36,0.000,0.0,0.0,0.0
06/07/2023,02:53:37,0.000,0.0,0.0,0.0
06/07/2023,02:54:36,0.000,0.0,0.0,0.0
06/07/2023,02:55:36,0.000,0.0,0.0,0.0
06/07/2023,02:56:36,0.001,0.0,0.0,0.0
06/07/2023,02:57:36,-0.000,0.0,0.0,0.0
06/07/2023,02:58:37,0.000,0.0,0.0,0.0
06/07/2023,02:59:35,0.001,0.0,0.0,0.0
06/07/2023,03:00:37,0.000,0.0,0.0,0.0
06/07/2023,03:01:36,0.000,0.0,0.0,0.0
06/07/2023,03:02:37,0.001,0.0,0.0,0.0
06/07/2023,03:03:36,-0.000,0.0,0.0,0.0
06/07/2023,03:04:37,0.001,0.0,0.0,0.0
06/07/2023,03:05:36,0.000,0.0,0.0,0.0
06/07/2023,03:06:37,0.001,0.0,0.0,0.0
06/07/2023,03:07:37,0.001,0.0,0.0,0.0
06/07/2023,03:08:36,0.000,0.0,0.0,0.0
06/07/2023,03:09:37,0.001,0.0,0.0,0.0
06/07/2023,03:10:37,0.000,0.0,0.0,0.0
06/07/2023,03:11:36,0.001,0.0,0.0,0.0
06/07/2023,03:12:36,0.001,0.0,0.0,0.0
06/07/2023,03:13:36,0.001,0.0,0.0,0.0
06/07/2023,03:14:37,0.001,0.0,0.0,0.0
06/07/2023,03:15:37,-0.000,0.0,0.0,0.0
06/07/2023,03:16:37,0.000,0.0,0.0,0.0
06/07/2023,03:17:36,0.002,0.0,0.0,0.0
06/07/2023,03:18:36,-0.001,0.0,0.0,0.0
06/07/2023,03:19:37,0.000,0.0,0.0,0.0
06/07/2023,03:20:36,0.001,0.0,0.0,0.0
06/07/2023,03:21:36,0.001,0.0,0.0,0.0
06/07/2023,03:22:37,0.000,0.0,0.0,0.0
06/07/2023,03:23:37,0.001,0.0,0.0,0.0
06/07/2023,03:24:36,0.002,0.0,0.0,0.0
06/07/2023,03:25:36,0.000,0.0,0.0,0.0
06/07/2023,03:26:37,0.001,0.0,0.0,0.0
06/07/2023,03:27:37,0.001,0.0,0.0,0.0
06/07/2023,03:28:36,0.002,0.0,0.0,0.0
06/07/2023,03:29:37,0.001,0.0,0.0,0.0
06/07/2023,03:30:37,0.001,0.0,0.0,0.0
06/07/2023,03:32:06,0.000,0.0,0.0,0.0
06/07/2023,03:33:37,-0.000,0.0,0.0,0.0
06/07/2023,03:34:36,0.001,0.0,0.0,0.0
06/07/2023,03:35:37,0.001,0.0,0.0,0.0
06/07/2023,03:36:37,0.000,0.0,0.0,0.0
06/07/2023,03:37:36,0.001,0.0,0.0,0.0
06/07/2023,03:38:37,0.001,0.0,0.0,0.0
06/07/2023,03:39:36,0.001,0.0,0.0,0.0
06/07/2023,03:40:37,0.002,0.0,0.0,0.0
06/07/2023,03:41:36,0.002,0.0,0.0,0.0
06/07/2023,03:42:37,0.002,0.0,0.0,0.0
06/07/2023,03:43:37,0.002,0.0,0.0,0.0
06/07/2023,03:44:36,0.002,0.0,0.0,0.0
06/07/2023,03:45:37,0.001,0.0,0.0,0.0
06/07/2023,03:46:36,0.003,0.0,0.0,0.0
06/07/2023,03:47:36,0.003,0.0,0.0,0.0
06/07/2023,03:48:37,0.002,0.0,0.0,0.0
06/07/2023,03:49:37,0.003,0.0,0.0,0.0
06/07/2023,03:50:36,0.002,0.0,0.0,0.0
06/07/2023,03:51:37,0.003,0.0,0.0,0.0
06/07/2023,03:52:36,0.003,0.0,0.0,0.0
06/07/2023,03:53:36,0.003,0.0,0.0,0.0
06/07/2023,03:54:36,0.003,0.0,0.0,0.0
06/07/2023,03:55:37,0.003,0.0,0.0,0.0
06/07/2023,03:56:37,0.003,0.0,0.0,0.0
06/07/2023,03:57:37,0.003,0.0,0.0,0.0
06/07/2023,03:58:36,0.004,0.0,0.0,0.0
06/07/2023,03:59:37,0.004,0.0,0.0,0.0
06/07/2023,04:00:37,0.004,0.0,0.0,0.0
06/07/2023,04:01:36,0.005,0.0,0.0,0.0
06/07/2023,04:02:36,0.005,0.0,0.0,0.0
06/07/2023,04:03:37,0.005,0.0,0.0,0.0
06/07/2023,04:04:37,0.005,0.0,0.0,0.0
06/07/2023,04:05:36,0.005,0.0,0.0,0.0
06/07/2023,04:06:36,0.005,0.0,0.0,0.0
06/07/2023,04:07:37,0.005,0.0,0.0,0.0
06/07/2023,04:08:37,0.006,0.0,0.0,0.0
06/07/2023,04:09:36,0.006,0.0,0.0,0.0
06/07/2023,04:10:37,0.006,0.0,0.0,0.0
06/07/2023,04:11:36,0.006,0.0,0.0,0.0
06/07/2023,04:12:36,0.007,0.0,0.0,0.0
06/07/2023,04:13:36,0.007,0.0,0.0,0.0
06/07/2023,04:14:37,0.007,0.0,0.0,0.0
06/07/2023,04:15:36,0.007,0.0,0.001,0.001
06/07/2023,04:16:37,0.008,0.0,0.001,0.0
06/07/2023,04:17:37,0.008,0.0,0.001,0.0
06/07/2023,04:18:37,0.007,0.0,0.001,0.0
06/07/2023,04:19:36,0.009,0.0,0.001,0.0
06/07/2023,04:20:37,0.009,0.0,0.001,0.0
06/07/2023,04:21:36,0.009,0.0,0.001,0.0
06/07/2023,04:22:37,0.010,0.0,0.002,0.001
06/07/2023,04:23:37,0.010,0.0,0.002,0.0
06/07/2023,04:24:37,0.010,0.0,0.002,0.0
06/07/2023,04:25:36,0.011,0.0,0.002,0.0
06/07/2023,04:26:36,0.011,0.0,0.002,0.0
06/07/2023,04:27:36,0.011,0.0,0.002,0.0
06/07/2023,04:28:36,0.011,0.0,0.003,0.001
06/07/2023,04:29:38,0.011,0.0,0.003,0.0
06/07/2023,04:30:37,0.011,0.0,0.003,0.0
06/07/2023,04:31:37,0.011,0.0,0.003,0.0
06/07/2023,04:32:37,0.012,0.0,0.003,0.0
06/07/2023,04:33:37,0.011,0.0,0.003,0.0
06/07/2023,04:34:36,0.012,0.0,0.004,0.001
06/07/2023,04:35:36,0.012,0.0,0.004,0.0
06/07/2023,04:36:36,0.012,0.0,0.004,0.0
06/07/2023,04:37:37,0.013,0.0,0.004,0.0
06/07/2023,04:38:36,0.013,0.0,0.004,0.0
06/07/2023,04:39:37,0.013,0.0,0.005,0.001
06/07/2023,04:40:36,0.014,0.0,0.005,0.0
06/07/2023,04:41:37,0.014,0.0,0.005,0.0
06/07/2023,04:42:36,0.015,0.0,0.005,0.0
06/07/2023,04:43:37,0.017,0.0,0.006,0.001
06/07/2023,04:44:36,0.017,0.0,0.006,0.0
06/07/2023,04:45:37,0.018,0.0,0.006,0.0
06/07/2023,04:46:37,0.018,0.0,0.007,0.001
06/07/2023,04:47:36,0.019,0.0,0.007,0.0
06/07/2023,04:48:37,0.020,0.0,0.007,0.0
06/07/2023,04:49:36,0.021,0.0,0.007,0.0
06/07/2023,04:50:38,0.021,0.0,0.008,0.001
06/07/2023,04:51:38,0.022,0.0,0.008,0.0
06/07/2023,04:52:36,0.023,0.0,0.009,0.001
06/07/2023,04:53:37,0.024,0.0,0.009,0.0
06/07/2023,04:54:37,0.025,0.0,0.009,0.0
06/07/2023,04:55:37,0.027,0.0,0.01,0.001
06/07/2023,04:56:36,0.026,0.0,0.01,0.0
06/07/2023,04:57:37,0.028,0.0,0.011,0.001
06/07/2023,04:58:37,0.028,0.0,0.011,0.0
06/07/2023,04:59:37,0.029,0.0,0.012,0.001
06/07/2023,05:00:36,0.030,0.0,0.012,0.0
06/07/2023,05:01:37,0.031,0.0,0.013,0.001
06/07/2023,05:02:37,0.032,0.0,0.013,0.0
06/07/2023,05:03:37,0.033,0.0,0.014,0.001
06/07/2023,05:04:37,0.034,0.0,0.014,0.0
06/07/2023,05:05:37,0.035,0.0,0.015,0.001
06/07/2023,05:06:37,0.036,0.0,0.015,0.0
06/07/2023,05:07:37,0.038,0.0,0.016,0.001
06/07/2023,05:08:36,0.039,0.0,0.017,0.001
06/07/2023,05:09:37,0.039,0.0,0.017,0.0
06/07/2023,05:10:37,0.040,0.0,0.018,0.001
06/07/2023,05:11:36,0.041,0.0,0.019,0.001
06/07/2023,05:12:37,0.041,0.0,0.019,0.0
06/07/2023,05:13:36,0.043,0.0,0.02,0.001
06/07/2023,05:14:37,0.045,0.0,0.021,0.001
06/07/2023,05:15:36,0.046,0.0,0.022,0.001
06/07/2023,05:16:36,0.047,0.0,0.022,0.0
06/07/2023,05:17:37,0.048,0.0,0.023,0.001
06/07/2023,05:18:36,0.049,0.0,0.024,0.001
06/07/2023,05:19:37,0.051,0.0,0.025,0.001
06/07/2023,05:20:37,0.053,0.0,0.026,0.001
06/07/2023,05:21:36,0.054,0.0,0.027,0.001
06/07/2023,05:22:37,0.055,0.0,0.027,0.0
06/07/2023,05:23:36,0.056,0.0,0.028,0.001
06/07/2023,05:24:37,0.057,0.0,0.029,0.001
06/07/2023,05:25:37,0.059,0.0,0.03,0.001
06/07/2023,05:26:37,0.061,0.0,0.031,0.001
06/07/2023,05:27:37,0.062,0.0,0.032,0.001
06/07/2023,05:28:37,0.063,0.0,0.033,0.001
06/07/2023,05:29:37,0.064,0.0,0.034,0.001
06/07/2023,05:30:37,0.066,0.0,0.036,0.002
06/07/2023,05:31:37,0.068,0.0,0.037,0.001
06/07/2023,05:32:37,0.069,0.0,0.038,0.001
06/07/2023,05:33:37,0.071,0.0,0.039,0.001
06/07/2023,05:34:36,0.073,0.0,0.04,0.001
06/07/2023,05:35:37,0.074,0.0,0.041,0.001
06/07/2023,05:36:37,0.075,0.0,0.043,0.002
06/07/2023,05:37:36,0.077,0.0,0.044,0.001
06/07/2023,05:38:37,0.078,0.0,0.045,0.001
06/07/2023,05:39:36,0.081,0.0,0.046,0.001
06/07/2023,05:40:36,0.079,0.0,0.048,0.002
06/07/2023,05:41:37,0.081,0.0,0.049,0.001
06/07/2023,05:42:37,0.083,0.0,0.051,0.002
06/07/2023,05:43:37,0.084,0.0,0.052,0.001
06/07/2023,05:44:37,0.087,0.0,0.053,0.001
06/07/2023,05:45:37,0.092,0.0,0.055,0.002
06/07/2023,05:46:36,0.093,0.0,0.056,0.001
06/07/2023,05:47:37,0.094,0.0,0.058,0.002
06/07/2023,05:48:36,0.096,0.0,0.059,0.001
06/07/2023,05:49:37,0.096,0.0,0.061,0.002
06/07/2023,05:50:36,0.100,0.0,0.063,0.002
06/07/2023,05:51:37,0.104,0.0,0.064,0.001
06/07/2023,05:52:36,0.106,0.0,0.066,0.002
06/07/2023,05:53:37,0.108,0.0,0.068,0.002
06/07/2023,05:54:36,0.108,0.0,0.07,0.002
06/07/2023,05:55:37,0.106,0.0,0.072,0.002
06/07/2023,05:56:36,0.110,0.0,0.073,0.001
06/07/2023,05:57:37,0.111,0.0,0.075,0.002
06/07/2023,05:58:37,0.110,0.0,0.077,0.002
06/07/2023,05:59:36,0.112,0.0,0.079,0.002
06/07/2023,06:00:37,0.114,0.0,0.081,0.002
06/07/2023,06:01:36,0.117,0.0,0.083,0.002
06/07/2023,06:02:37,0.116,0.0,0.085,0.002
06/07/2023,06:03:38,0.115,0.0,0.087,0.002
06/07/2023,06:04:38,0.116,0.0,0.089,0.002
06/07/2023,06:05:37,0.118,0.0,0.091,0.002
06/07/2023,06:06:37,0.119,0.0,0.092,0.001
06/07/2023,06:07:36,0.120,0.0,0.094,0.002
06/07/2023,06:08:37,0.122,0.0,0.096,0.002
06/07/2023,06:09:36,0.123,0.0,0.098,0.002
06/07/2023,06:10:37,0.125,0.0,0.101,0.003
06/07/2023,06:11:37,0.126,0.0,0.103,0.002
06/07/2023,06:12:36,0.126,0.0,0.105,0.002
06/07/2023,06:13:37,0.128,0.0,0.107,0.002
06/07/2023,06:14:37,0.128,0.0,0.109,0.002
06/07/2023,06:15:37,0.135,0.0,0.111,0.002
06/07/2023,06:16:37,0.130,0.0,0.113,0.002
06/07/2023,06:17:37,0.130,0.0,0.115,0.002
06/07/2023,06:18:37,0.132,0.0,0.118,0.003
06/07/2023,06:19:37,0.135,0.0,0.12,0.002
06/07/2023,06:20:36,0.138,0.0,0.122,0.002
06/07/2023,06:21:36,0.141,0.0,0.124,0.002
06/07/2023,06:22:37,0.142,0.0,0.127,0.003
06/07/2023,06:23:37,0.141,0.0,0.129,0.002
06/07/2023,06:24:36,0.138,0.0,0.132,0.003
06/07/2023,06:25:37,0.134,0.0,0.134,0.002
06/07/2023,06:26:34,0.129,0.0,0.136,0.002
06/07/2023,06:27:37,0.124,0.0,0.138,0.002
06/07/2023,06:28:37,0.119,0.0,0.14,0.002
06/07/2023,06:29:37,0.118,0.0,0.142,0.002
06/07/2023,06:30:38,0.118,0.0,0.144,0.002
06/07/2023,06:31:37,0.119,0.0,0.146,0.002
06/07/2023,06:32:36,0.118,0.0,0.148,0.002
06/07/2023,06:33:37,0.113,0.0,0.15,0.002
06/07/2023,06:34:36,0.104,0.0,0.152,0.002
06/07/2023,06:35:37,0.102,0.0,0.153,0.001
06/07/2023,06:36:37,0.107,0.0,0.155,0.002
06/07/2023,06:37:37,0.110,0.0,0.157,0.002
06/07/2023,06:38:37,0.115,0.0,0.159,0.002
06/07/2023,06:39:37,0.116,0.0,0.161,0.002
06/07/2023,06:40:37,0.122,0.0,0.163,0.002
06/07/2023,06:41:37,0.123,0.0,0.165,0.002
06/07/2023,06:42:37,0.124,0.0,0.167,0.002
06/07/2023,06:43:37,0.124,0.0,0.169,0.002
06/07/2023,06:44:37,0.122,0.0,0.171,0.002
06/07/2023,06:45:37,0.122,0.0,0.173,0.002
06/07/2023,06:46:37,0.118,0.0,0.175,0.002
06/07/2023,06:47:37,0.116,0.0,0.177,0.002
06/07/2023,06:48:37,0.116,0.0,0.179,0.002
06/07/2023,06:49:37,0.120,0.0,0.181,0.002
06/07/2023,06:50:37,0.125,0.0,0.183,0.002
06/07/2023,06:51:37,0.129,0.0,0.185,0.002
06/07/2023,06:52:37,0.133,0.0,0.187,0.002
06/07/2023,06:53:37,0.136,0.0,0.189,0.002
06/07/2023,06:54:37,0.142,0.0,0.192,0.003
06/07/2023,06:55:37,0.148,0.0,0.194,0.002
06/07/2023,06:56:37,0.155,0.0,0.197,0.003
06/07/2023,06:57:37,0.164,0.0,0.199,0.002
06/07/2023,06:58:37,0.177,0.0,0.202,0.003
06/07/2023,06:59:37,0.190,0.0,0.205,0.003
06/07/2023,07:00:37,0.202,0.0,0.209,0.004
06/07/2023,07:01:37,0.209,0.0,0.212,0.003
06/07/2023,07:02:37,0.220,1.0,0.216,0.004
06/07/2023,07:03:36,0.227,1.0,0.219,0.003
06/07/2023,07:04:59,0.236,1.0,0.225,0.006
06/07/2023,07:06:38,0.238,1.0,0.231,0.006
06/07/2023,07:07:37,0.232,1.0,0.235,0.004
06/07/2023,07:08:37,0.222,1.0,0.239,0.004
06/07/2023,07:09:37,0.210,0.0,0.243,0.004
06/07/2023,07:10:36,0.201,0.0,0.246,0.003
06/07/2023,07:11:37,0.196,0.0,0.249,0.003
06/07/2023,07:12:36,0.194,0.0,0.252,0.003
06/07/2023,07:13:37,0.200,0.0,0.256,0.004
06/07/2023,07:14:37,0.214,0.0,0.259,0.003
06/07/2023,07:15:37,0.233,1.0,0.263,0.004
06/07/2023,07:16:37,0.249,1.0,0.267,0.004
06/07/2023,07:17:37,0.265,1.0,0.271,0.004
06/07/2023,07:18:37,0.282,1.0,0.276,0.005
06/07/2023,07:19:37,0.300,1.0,0.28,0.004
06/07/2023,07:20:37,0.318,1.0,0.286,0.006
06/07/2023,07:21:36,0.335,1.0,0.291,0.005
06/07/2023,07:22:37,0.348,1.0,0.297,0.006
06/07/2023,07:23:37,0.359,1.0,0.303,0.006
06/07/2023,07:24:37,0.371,1.0,0.309,0.006
06/07/2023,07:25:36,0.387,1.0,0.315,0.006
06/07/2023,07:26:37,0.387,1.0,0.322,0.007
06/07/2023,07:27:37,0.435,1.0,0.328,0.006
06/07/2023,07:28:37,0.418,1.0,0.335,0.007
06/07/2023,07:29:37,0.416,1.0,0.342,0.007
06/07/2023,07:30:36,0.416,1.0,0.349,0.007
06/07/2023,07:31:59,0.419,1.0,0.358,0.009
06/07/2023,07:33:38,0.439,1.0,0.37,0.012
06/07/2023,07:34:37,0.477,1.0,0.378,0.008
06/07/2023,07:35:36,0.440,1.0,0.386,0.008
06/07/2023,07:36:59,0.433,1.0,0.396,0.01
06/07/2023,07:38:38,0.435,1.0,0.408,0.012
06/07/2023,07:39:36,0.432,1.0,0.415,0.007
06/07/2023,07:40:37,0.436,1.0,0.422,0.007
06/07/2023,07:41:36,0.440,1.0,0.429,0.007
06/07/2023,07:42:37,0.449,1.0,0.437,0.008
06/07/2023,07:43:37,0.449,1.0,0.444,0.007
06/07/2023,07:44:37,0.447,1.0,0.452,0.008
06/07/2023,07:45:37,0.450,1.0,0.459,0.007
06/07/2023,07:46:37,0.452,1.0,0.467,0.008
06/07/2023,07:47:37,0.454,1.0,0.474,0.007
06/07/2023,07:48:37,0.458,1.0,0.482,0.008
06/07/2023,07:49:37,0.459,1.0,0.489,0.007
06/07/2023,07:50:37,0.463,1.0,0.497,0.008
06/07/2023,07:51:37,0.462,1.0,0.505,0.008
06/07/2023,07:52:37,0.461,1.0,0.513,0.008
06/07/2023,07:53:37,0.463,1.0,0.521,0.008
06/07/2023,07:54:37,0.460,1.0,0.528,0.007
06/07/2023,07:55:37,0.461,1.0,0.536,0.008
06/07/2023,07:56:36,0.465,1.0,0.543,0.007
06/07/2023,07:57:37,0.473,1.0,0.551,0.008
06/07/2023,07:58:37,0.481,1.0,0.559,0.008
06/07/2023,07:59:37,0.487,1.0,0.567,0.008
06/07/2023,08:00:37,0.497,1.0,0.576,0.009
06/07/2023,08:01:37,0.505,1.0,0.584,0.008
06/07/2023,08:02:37,0.513,1.0,0.592,0.008
06/07/2023,08:03:37,0.517,1.0,0.601,0.009
06/07/2023,08:04:37,0.522,1.0,0.61,0.009
06/07/2023,08:05:37,0.528,1.0,0.618,0.008
06/07/2023,08:06:37,0.539,1.0,0.627,0.009
06/07/2023,08:07:37,0.560,1.0,0.636,0.009
06/07/2023,08:08:37,0.589,1.0,0.646,0.01
06/07/2023,08:09:37,0.611,1.0,0.656,0.01
06/07/2023,08:10:37,0.664,2.0,0.667,0.011
06/07/2023,08:11:37,0.800,2.0,0.679,0.012
06/07/2023,08:12:37,0.851,2.0,0.693,0.014
06/07/2023,08:13:37,0.911,2.0,0.707,0.014
06/07/2023,08:14:37,0.763,2.0,0.721,0.014
06/07/2023,08:15:37,0.735,2.0,0.733,0.012
06/07/2023,08:16:38,0.753,2.0,0.746,0.013
06/07/2023,08:17:37,0.828,2.0,0.759,0.013
06/07/2023,08:18:37,0.795,2.0,0.773,0.014
06/07/2023,08:19:37,0.732,2.0,0.785,0.012
06/07/2023,08:20:38,0.761,2.0,0.798,0.013
06/07/2023,08:21:37,0.802,2.0,0.811,0.013
06/07/2023,08:22:37,0.853,2.0,0.825,0.014
06/07/2023,08:23:38,0.825,2.0,0.84,0.015
06/07/2023,08:24:37,0.862,2.0,0.853,0.013
06/07/2023,08:25:37,0.848,2.0,0.868,0.015
06/07/2023,08:26:37,0.841,2.0,0.882,0.014
06/07/2023,08:27:37,0.895,2.0,0.897,0.015
06/07/2023,08:28:37,0.865,2.0,0.911,0.014
06/07/2023,08:29:37,0.934,2.0,0.927,0.016
06/07/2023,08:30:37,0.986,2.0,0.943,0.016
06/07/2023,08:31:37,0.919,2.0,0.959,0.016
06/07/2023,08:32:37,0.903,2.0,0.975,0.016
06/07/2023,08:33:38,0.847,2.0,0.991,0.016
06/07/2023,08:34:37,0.852,2.0,1.005,0.014
06/07/2023,08:35:38,0.877,2.0,1.02,0.015
06/07/2023,08:36:37,0.872,2.0,1.034,0.014
06/07/2023,08:37:37,0.963,2.0,1.051,0.017
06/07/2023,08:38:37,0.915,2.0,1.066,0.015
06/07/2023,08:39:37,1.071,2.0,1.081,0.015
06/07/2023,08:40:37,0.992,2.0,1.099,0.018
06/07/2023,08:41:37,1.068,2.0,1.115,0.016
06/07/2023,08:42:37,0.983,2.0,1.132,0.017
06/07/2023,08:43:37,1.149,3.0,1.149,0.017
06/07/2023,08:44:37,0.957,2.0,1.166,0.017
06/07/2023,08:45:37,0.969,2.0,1.183,0.017
06/07/2023,08:46:37,1.144,3.0,1.2,0.017
06/07/2023,08:47:37,1.159,3.0,1.221,0.021
06/07/2023,08:48:37,1.129,3.0,1.239,0.018
06/07/2023,08:49:37,0.995,2.0,1.256,0.017
06/07/2023,08:50:37,0.955,2.0,1.273,0.017
06/07/2023,08:51:37,1.063,2.0,1.291,0.018
06/07/2023,08:52:37,1.096,3.0,1.308,0.017
06/07/2023,08:53:38,1.302,3.0,1.327,0.019
06/07/2023,08:54:37,1.130,3.0,1.346,0.019
06/07/2023,08:55:38,1.063,2.0,1.366,0.02
06/07/2023,08:56:37,1.064,2.0,1.382,0.016
06/07/2023,08:57:37,1.283,3.0,1.404,0.022
06/07/2023,08:58:37,1.080,2.0,1.422,0.018
06/07/2023,08:59:38,1.050,2.0,1.44,0.018
06/07/2023,09:00:37,1.064,2.0,1.457,0.017
06/07/2023,09:01:37,1.103,3.0,1.477,0.02
06/07/2023,09:02:37,1.178,3.0,1.496,0.019
06/07/2023,09:03:37,1.394,3.0,1.517,0.021
06/07/2023,09:04:37,1.376,3.0,1.537,0.02
06/07/2023,09:05:36,1.302,3.0,1.558,0.021
06/07/2023,09:06:38,1.354,3.0,1.579,0.021
06/07/2023,09:07:37,1.330,3.0,1.601,0.022
06/07/2023,09:08:37,1.347,3.0,1.623,0.022
06/07/2023,09:09:37,1.333,3.0,1.646,0.023
06/07/2023,09:10:37,1.378,3.0,1.668,0.022
06/07/2023,09:11:38,1.367,3.0,1.691,0.023
06/07/2023,09:12:37,1.382,3.0,1.713,0.022
06/07/2023,09:13:37,1.387,3.0,1.736,0.023
06/07/2023,09:14:37,1.352,3.0,1.759,0.023
06/07/2023,09:15:37,0.968,2.0,1.781,0.022
06/07/2023,09:16:37,0.636,1.0,1.793,0.012
06/07/2023,09:17:37,0.584,1.0,1.803,0.01
06/07/2023,09:18:37,0.578,1.0,1.812,0.009
06/07/2023,09:19:37,0.591,1.0,1.822,0.01
06/07/2023,09:20:38,0.613,1.0,1.832,0.01
06/07/2023,09:21:37,0.659,2.0,1.843,0.011
06/07/2023,09:22:38,0.785,2.0,1.855,0.012
06/07/2023,09:23:37,1.275,3.0,1.873,0.018
06/07/2023,09:24:37,0.860,2.0,1.89,0.017
06/07/2023,09:25:37,0.931,2.0,1.904,0.014
06/07/2023,09:26:37,1.465,3.0,1.925,0.021
06/07/2023,09:27:37,1.469,3.0,1.95,0.025
06/07/2023,09:28:37,0.845,2.0,1.97,0.02
06/07/2023,09:29:37,0.761,2.0,1.983,0.013
06/07/2023,09:30:37,0.679,2.0,1.995,0.012
06/07/2023,09:31:37,0.627,1.0,2.006,0.011
06/07/2023,09:32:37,0.592,1.0,2.016,0.01
06/07/2023,09:33:37,0.587,1.0,2.026,0.01
06/07/2023,09:34:37,0.613,1.0,2.036,0.01
06/07/2023,09:35:37,0.672,2.0,2.046,0.01
06/07/2023,09:36:38,0.843,2.0,2.059,0.013
06/07/2023,09:37:37,0.806,2.0,2.075,0.016
06/07/2023,09:38:37,0.787,2.0,2.088,0.013
06/07/2023,09:39:37,0.764,2.0,2.102,0.014
06/07/2023,09:40:38,0.737,2.0,2.114,0.012
06/07/2023,09:41:37,0.718,2.0,2.126,0.012
06/07/2023,09:42:37,0.721,2.0,2.138,0.012
06/07/2023,09:43:37,0.737,2.0,2.15,0.012
06/07/2023,09:44:37,0.776,2.0,2.163,0.013
06/07/2023,09:45:37,0.746,2.0,2.176,0.013
06/07/2023,09:46:37,0.751,2.0,2.188,0.012
06/07/2023,09:47:38,0.774,2.0,2.201,0.013
06/07/2023,09:48:37,0.817,2.0,2.214,0.013
06/07/2023,09:49:37,0.904,2.0,2.228,0.014
06/07/2023,09:50:37,1.693,4.0,2.25,0.022
06/07/2023,09:51:37,1.628,4.0,2.278,0.028
06/07/2023,09:52:38,1.822,4.0,2.309,0.031
06/07/2023,09:53:37,1.834,4.0,2.338,0.029
06/07/2023,09:54:37,1.762,4.0,2.365,0.027
06/07/2023,09:55:37,1.823,4.0,2.396,0.031
06/07/2023,09:56:38,1.817,4.0,2.427,0.031
06/07/2023,09:57:37,1.823,4.0,2.456,0.029
06/07/2023,09:58:38,1.666,4.0,2.479,0.023